sat.trackr.live / text

‹ back to catalog

QIANFAN-125

NORAD 68652 · 2026-075S

PAYLOAD ACTIVE UNKNOWN

§ Identity

Operator
Country
PRC
Launch date
2026-04-07
Launch site
WSC
Launch vehicle
Mass (kg)
RCS (m²)

External: N2YO · Heavens-Above · Gunter

§ Orbital elements

Epoch: 2026-05-24T11:47:59.139744Z

Period
105.80 min
Inclination
88.9873°
Eccentricity
0.0005167
Mean motion
13.61082930 rev/d
Perigee alt
1,027.9 km
Apogee alt
1,035.6 km
Semi-major
7,409.9 km
B*
-2.5514e+0
RAAN
323.4304°
Arg perigee
113.0333°
Mean anomaly
247.1369°
Rev number
660

§ Raw data

QIANFAN-1251 68652U 26075S   26144.49165671 -.01805809  00000+0 -25514+1 0  99922 68652  88.9873 323.4304 0005167 113.0333 247.1369 13.61082930  6601

JSON: /api/v1/satellites/68652 · /tle

For live sub-satellite position, see the globe view (requires WebGL).

§ Visibility from observer

Set your observer location to see the next 7 days of passes ≥ 10°. The values pass through the URL so the page stays shareable.

No JS? Fill the form by hand. The geolocation button needs JavaScript.